When you browse on this site, cookies collect data to enhance your experience and personalize the content and advertising you see.
Visit our Privacy Policy to learn more. By continuing to use the site, you agree to this use of cookies and data.
  • In United Kingdom
  • List of Countries
  • For 7 days
  • Water Temperature
  • Weather Map
  • Weather Widgets
  • user-avatar
    Login

    Hourly Weather Sarajevo

    Today, 24 February, Monday

    Time Temperature Precipitation Wind Pressure Humidity
    00:00 +3°C° 0 mm 2 mps 689 mmHg 76%
    01:00 +3°C° 0 mm 2 mps 689 mmHg 76%
    02:00 +3°C° 0 mm 2 mps 688 mmHg 77%
    03:00 +3°C° 0 mm 2 mps 688 mmHg 78%
    04:00 +3°C° 0 mm 2 mps 688 mmHg 79%
    05:00 +4°C° 0 mm 1 mps 688 mmHg 80%
    06:00 +4°C° 0 mm 1 mps 689 mmHg 80%
    07:00 +4°C° 0 mm 1 mps 689 mmHg 81%
    08:00 +6°C° 0 mm 1 mps 690 mmHg 77%
    09:00 +7°C° 0 mm 2 mps 691 mmHg 73%
    10:00 +8°C° 0 mm 2 mps 692 mmHg 70%
    11:00 +8°C° 0 mm 2 mps 692 mmHg 72%
    12:00 +8°C° 0 mm 3 mps 692 mmHg 75%
    13:00 +8°C° 0 mm 3 mps 692 mmHg 77%
    14:00 +8°C° 0 mm 2 mps 692 mmHg 77%
    15:00 +7°C° 0 mm 2 mps 691 mmHg 77%
    16:00 +7°C° 0 mm 2 mps 691 mmHg 77%
    17:00 +5°C° 0 mm 2 mps 690 mmHg 81%
    18:00 +4°C° 0 mm 2 mps 690 mmHg 84%
    19:00 +4°C° 0 mm 1 mps 689 mmHg 88%
    20:00 +4°C° 0 mm 1 mps 689 mmHg 85%
    21:00 +4°C° 0 mm 1 mps 689 mmHg 83%
    22:00 +4°C° 0 mm 1 mps 689 mmHg 81%
    23:00 +5°C° 0 mm 1 mps 689 mmHg 80%

    Tomorrow, 25 February, Tuesday

    Time Temperature Precipitation Wind Pressure Humidity
    00:00 +5°C° 0 mm 1 mps 688 mmHg 79%
    01:00 +5°C° 0 mm 1 mps 688 mmHg 79%
    02:00 +4°C° 0 mm 2 mps 687 mmHg 80%
    03:00 +4°C° 0 mm 2 mps 687 mmHg 82%
    04:00 +4°C° 0 mm 2 mps 686 mmHg 84%
    05:00 +4°C° 0 mm 2 mps 686 mmHg 85%
    06:00 +4°C° 0 mm 2 mps 686 mmHg 85%
    07:00 +4°C° 0 mm 2 mps 686 mmHg 86%
    08:00 +6°C° 0 mm 2 mps 686 mmHg 82%
    09:00 +8°C° 0 mm 2 mps 686 mmHg 77%
    10:00 +9°C° 0 mm 2 mps 686 mmHg 73%
    11:00 +10°C° 0 mm 3 mps 685 mmHg 72%
    12:00 +10°C° 0 mm 3 mps 685 mmHg 70%
    13:00 +11°C° 0 mm 4 mps 685 mmHg 69%
    14:00 +10°C° 0 mm 3 mps 684 mmHg 74%
    15:00 +9°C° 0 mm 3 mps 684 mmHg 78%
    16:00 +9°C° 0 mm 3 mps 683 mmHg 82%
    17:00 +8°C° 0 mm 3 mps 683 mmHg 85%
    18:00 +7°C° 0 mm 3 mps 682 mmHg 88%
    19:00 +7°C° 0 mm 2 mps 682 mmHg 91%
    20:00 +7°C° 0 mm 3 mps 682 mmHg 92%
    21:00 +7°C° 0 mm 3 mps 682 mmHg 93%
    22:00 +7°C° 0 mm 3 mps 681 mmHg 93%
    23:00 +6°C° 0.1 mm 4 mps 681 mmHg 93%

    Day after tomorrow, 26 February, Wednesday

    Time Temperature Precipitation Wind Pressure Humidity
    00:00 +6°C° 0.1 mm 4 mps 680 mmHg 93%
    01:00 +6°C° 0.1 mm 4 mps 680 mmHg 93%
    02:00 +6°C° 0.2 mm 4 mps 679 mmHg 93%
    03:00 +6°C° 0.2 mm 4 mps 678 mmHg 93%
    04:00 +6°C° 0.2 mm 5 mps 678 mmHg 93%
    05:00 +5°C° 0.2 mm 5 mps 677 mmHg 93%
    06:00 +4°C° 0.2 mm 6 mps 677 mmHg 93%
    07:00 +4°C° 0.2 mm 6 mps 676 mmHg 93%
    08:00 +4°C° 0.2 mm 7 mps 676 mmHg 92%
    09:00 +4°C° 0.2 mm 7 mps 676 mmHg 91%
    10:00 +5°C° 0.2 mm 8 mps 675 mmHg 90%
    11:00 +5°C° 0.2 mm 7 mps 675 mmHg 89%
    12:00 +5°C° 0.2 mm 7 mps 675 mmHg 88%
    13:00 +5°C° 0.2 mm 7 mps 674 mmHg 88%
    14:00 +5°C° 0.8 mm 7 mps 674 mmHg 88%
    15:00 +5°C° 0.8 mm 7 mps 674 mmHg 88%
    16:00 +4°C° 0.8 mm 7 mps 673 mmHg 88%
    17:00 +4°C° 0.8 mm 6 mps 674 mmHg 88%
    18:00 +4°C° 0.8 mm 4 mps 674 mmHg 89%
    19:00 +5°C° 0.8 mm 2 mps 674 mmHg 89%
    20:00 +4°C° 1.5 mm 2 mps 674 mmHg 92%
    21:00 +3°C° 1.5 mm 2 mps 674 mmHg 95%
    22:00 +3°C° 1.5 mm 1 mps 674 mmHg 97%
    23:00 +3°C° 1.6 mm 1 mps 674 mmHg 97%

    27 February, Thursday

    Time Temperature Precipitation Wind Pressure Humidity
    00:00 +1°C° 1.6 mm 2 mps 674 mmHg 97%
    01:00 +1°C° 1.6 mm 2 mps 674 mmHg 97%
    02:00 -1°C° 1.8 mm 2 mps 674 mmHg 97%
    03:00 -1°C° 1.8 mm 2 mps 674 mmHg 96%
    04:00 -2°C° 1.8 mm 3 mps 674 mmHg 96%
    05:00 -4°C° 1.1 mm 3 mps 675 mmHg 95%
    06:00 -4°C° 1.1 mm 3 mps 676 mmHg 93%
    07:00 -5°C° 1.1 mm 4 mps 677 mmHg 92%
    08:00 -4°C° 0.2 mm 4 mps 678 mmHg 89%
    09:00 -3°C° 0.2 mm 4 mps 679 mmHg 86%
    10:00 -4°C° 0.2 mm 5 mps 680 mmHg 84%
    11:00 -2°C° 0.1 mm 4 mps 681 mmHg 81%
    12:00 -2°C° 0.1 mm 4 mps 681 mmHg 79%
    13:00 -1°C° 0.1 mm 4 mps 682 mmHg 77%
    14:00 0°C° 0.1 mm 3 mps 682 mmHg 77%
    15:00 +1°C° 0.1 mm 2 mps 682 mmHg 78%
    16:00 +1°C° 0.1 mm 2 mps 683 mmHg 78%
    17:00 0°C° 0 mm 1 mps 683 mmHg 80%
    18:00 -1°C° 0 mm 1 mps 683 mmHg 82%
    19:00 -3°C° 0 mm 1 mps 683 mmHg 84%
    20:00 -3°C° 0 mm 1 mps 683 mmHg 84%
    21:00 -3°C° 0 mm 1 mps 684 mmHg 83%
    22:00 -4°C° 0 mm 1 mps 684 mmHg 82%
    23:00 -4°C° 0 mm 1 mps 684 mmHg 82%

    28 February, Friday

    Time Temperature Precipitation Wind Pressure Humidity
    00:00 -6°C° 0 mm 2 mps 683 mmHg 82%
    01:00 -5°C° 0 mm 2 mps 683 mmHg 81%
    02:00 -6°C° 0 mm 3 mps 683 mmHg 81%
    03:00 -5°C° 0 mm 3 mps 683 mmHg 80%
    04:00 -4°C° 0 mm 3 mps 682 mmHg 80%
    05:00 -4°C° 0.1 mm 3 mps 682 mmHg 84%
    06:00 -3°C° 0.1 mm 4 mps 682 mmHg 88%
    07:00 -2°C° 0.1 mm 4 mps 683 mmHg 91%
    08:00 -1°C° 0.2 mm 4 mps 683 mmHg 92%
    09:00 -1°C° 0.2 mm 4 mps 683 mmHg 94%
    10:00 0°C° 0.2 mm 4 mps 683 mmHg 95%
    11:00 0°C° 0.2 mm 4 mps 683 mmHg 95%
    12:00 +2°C° 0.2 mm 3 mps 683 mmHg 95%
    13:00 +2°C° 0.2 mm 3 mps 683 mmHg 96%
    14:00 +2°C° 0.1 mm 3 mps 683 mmHg 96%
    15:00 +3°C° 0.1 mm 3 mps 684 mmHg 97%
    16:00 +4°C° 0.1 mm 2 mps 684 mmHg 97%
    17:00 +3°C° 0 mm 2 mps 684 mmHg 97%
    18:00 +3°C° 0 mm 2 mps 685 mmHg 98%
    19:00 +3°C° 0 mm 2 mps 685 mmHg 98%
    20:00 +3°C° 0 mm 2 mps 685 mmHg 98%
    21:00 +3°C° 0 mm 2 mps 685 mmHg 97%
    22:00 +3°C° 0 mm 2 mps 686 mmHg 97%
    23:00 +3°C° 0 mm 2 mps 685 mmHg 97%

    29 February, Saturday

    Time Temperature Precipitation Wind Pressure Humidity
    00:00 +4°C° 0 mm 1 mps 685 mmHg 96%
    01:00 +4°C° 0 mm 1 mps 685 mmHg 96%
    02:00 +3°C° 0 mm 2 mps 685 mmHg 97%
    03:00 +3°C° 0 mm 2 mps 684 mmHg 97%
    04:00 +4°C° 0 mm 2 mps 684 mmHg 97%
    05:00 +4°C° 0 mm 2 mps 684 mmHg 98%
    06:00 +4°C° 0 mm 2 mps 684 mmHg 98%
    07:00 +4°C° 0 mm 2 mps 684 mmHg 98%
    08:00 +5°C° 0 mm 2 mps 684 mmHg 97%
    09:00 +5°C° 0 mm 2 mps 684 mmHg 97%
    10:00 +6°C° 0 mm 2 mps 684 mmHg 96%
    11:00 +6°C° 0.1 mm 2 mps 684 mmHg 96%
    12:00 +6°C° 0.1 mm 2 mps 684 mmHg 96%
    13:00 +7°C° 0.1 mm 2 mps 684 mmHg 96%
    14:00 +6°C° 0.1 mm 2 mps 683 mmHg 97%
    15:00 +6°C° 0.1 mm 2 mps 683 mmHg 97%
    16:00 +6°C° 0.1 mm 2 mps 683 mmHg 98%
    17:00 +6°C° 0.1 mm 2 mps 683 mmHg 98%
    18:00 +6°C° 0.1 mm 2 mps 683 mmHg 98%
    19:00 +5°C° 0.1 mm 3 mps 683 mmHg 98%
    20:00 +5°C° 0.1 mm 3 mps 683 mmHg 97%
    21:00 +5°C° 0.1 mm 3 mps 683 mmHg 97%
    22:00 +5°C° 0.1 mm 3 mps 683 mmHg 97%
    23:00 +5°C° 0.1 mm 3 mps 682 mmHg 97%
    Show more